Albany, GA

7:12 PM EST on January 19, 2017 (GMT -0500)
Southwest Georgia Regional

Weather History for KABY - November, 2011

Change the Weather History Date:

Tuesday, November 29, 2011

  Actual Average Record
Temperature  
Mean Temperature 46 °F 55 °F  
Max Temperature 54 °F 67 °F 83 °F (1990)
Min Temperature 37 °F 43 °F 22 °F (1955)
Degree Days  
Heating Degree Days 20 11  
Month to date heating degree days 208  
Since 1 July heating degree days 258  
Cooling Degree Days 0 0  
Month to date cooling degree days 31  
Year to date cooling degree days 2534  
Moisture  
Dew Point 34 °F    
Average Humidity 67    
Maximum Humidity 89    
Minimum Humidity 40    
Precipitation  
Precipitation 0.00 in 0.16 in 0.51 in (2008)
Month to date precipitation 3.02  
Year to date precipitation 44.65  
Sea Level Pressure  
Sea Level Pressure 29.99 in    
Wind  
Wind Speed 7 mph (West)    
Max Wind Speed 14 mph    
Max Gust Speed 24 mph    
Visibility 10 miles    
Events      
T = Trace of Precipitation, MM = Missing Value Source: NWS Daily Summary

Daily Weather History Graph

Daily Weather History Graph

Search for Another Location

Airport or City:

Trip Planner

Search our weather history database for the weather conditions in past years. The results will help you decide how hot, cold, wet, or windy it might be!

Date:

Astronomy

Nov. 29, 2011 Rise Set
Actual Time 7:16 AM EST 5:33 PM EST
Civil Twilight 6:50 AM EST 5:59 PM EST
Nautical Twilight 6:20 AM EST 6:29 PM EST
Astronomical Twilight 5:50 AM EST 6:59 PM EST
Moon 11:08 AM EST (11/29) 10:17 PM EST (11/29)
Length of Visible Light 11h 09m
Length of Day
10h 16m
Waxing Crescent, 24% of the Moon is Illuminated
Nov 29
Waxing Crescent
Dec 2
First Quarter
Dec 10
Full
Dec 17
Last Quarter
Dec 24
New

Hourly Weather History & Observations

Time (EST) Temp. Windchill Dew Point Humidity Pressure Visibility Wind Dir Wind Speed Gust Speed Precip Events Conditions
12:53 AM 44.1 °F 40.8 °F 37.9 °F 79% 29.95 in 10.0 mi West 5.8 mph - N/A   Clear
2:53 AM 42.1 °F 37.7 °F 37.9 °F 85% 29.97 in 10.0 mi West 6.9 mph - N/A   Mostly Cloudy
3:53 AM 39.9 °F 36.7 °F 37.0 °F 89% 29.95 in 10.0 mi West 4.6 mph - N/A   Clear
4:53 AM 39.0 °F 35.7 °F 36.0 °F 89% 29.94 in 10.0 mi West 4.6 mph - N/A   Clear
5:53 AM 37.9 °F 32.7 °F 35.1 °F 89% 29.96 in 10.0 mi West 6.9 mph - N/A   Partly Cloudy
6:53 AM 37.9 °F 35.5 °F 35.1 °F 89% 29.97 in 10.0 mi WSW 3.5 mph - N/A   Clear
7:53 AM 39.0 °F - 36.0 °F 89% 29.98 in 10.0 mi Calm Calm - N/A   Scattered Clouds
8:53 AM 41.0 °F 35.8 °F 36.0 °F 82% 29.98 in 10.0 mi WSW 8.1 mph - N/A   Mostly Cloudy
9:08 AM 42.8 °F 37.5 °F 37.4 °F 81% 29.98 in 10.0 mi West 9.2 mph - N/A   Mostly Cloudy
9:53 AM 45.0 °F 40.6 °F 36.0 °F 71% 29.99 in 10.0 mi West 8.1 mph - N/A   Mostly Cloudy
10:53 AM 46.0 °F 40.2 °F 33.1 °F 61% 30.00 in 10.0 mi WSW 12.7 mph - N/A   Overcast
11:53 AM 50.0 °F - 33.1 °F 52% 29.98 in 10.0 mi SW 13.8 mph - N/A   Scattered Clouds
12:00 PM 50.0 °F - 32.0 °F 50% 29.97 in 10.0 mi WSW 11.5 mph 19.6 mph N/A   Scattered Clouds
12:53 PM 52.0 °F - 32.0 °F 47% 29.96 in 10.0 mi West 13.8 mph 23.0 mph N/A   Mostly Cloudy
1:53 PM 52.0 °F - 30.0 °F 43% 29.95 in 10.0 mi West 13.8 mph 21.9 mph N/A   Overcast
2:53 PM 54.0 °F - 30.0 °F 40% 29.95 in 10.0 mi West 13.8 mph 24.2 mph N/A   Mostly Cloudy
3:53 PM 53.1 °F - 30.9 °F 43% 29.96 in 10.0 mi WNW 12.7 mph - N/A   Partly Cloudy
4:53 PM 53.1 °F - 32.0 °F 45% 29.98 in 10.0 mi NW 9.2 mph - N/A   Clear
5:53 PM 48.9 °F - 33.1 °F 54% 29.99 in 10.0 mi NW 9.2 mph - N/A   Clear
6:53 PM 46.0 °F 43.1 °F 33.1 °F 61% 30.01 in 10.0 mi NW 5.8 mph - N/A   Clear
7:53 PM 45.0 °F 39.7 °F 34.0 °F 65% 30.03 in 10.0 mi NNW 10.4 mph - N/A   Clear
8:53 PM 44.6 °F 40.7 °F 33.8 °F 66% 30.05 in 10.0 mi NW 6.9 mph - N/A   Clear
9:53 PM 42.1 °F 39.2 °F 33.1 °F 70% 30.07 in 10.0 mi NW 4.6 mph - N/A   Clear
10:53 PM 42.1 °F 39.2 °F 33.1 °F 70% 30.08 in 10.0 mi NW 4.6 mph - N/A   Mostly Cloudy
11:53 PM 44.1 °F 41.5 °F 34.0 °F 68% 30.08 in 10.0 mi WNW 4.6 mph - N/A   Overcast